Location: A�t Lahcen
(32.8243°N, 5.4246°W)
Time: 23:59:09
(UTC+00:00)

Cosmos 2279 Rocket - Pass Details

Date: 27 January 2021
Orbit: 964 x 979 km, 82.9° (Epoch: 26 February)

Event Time Altitude Azimuth Distance (km) Brightness Sun altitude
Rises 06:17:00 0° 185° (S) 3,653 7.1 -13.4°
Reaches altitude 10° 06:19:29 10° 186° (S) 2,711 6.4 -12.9°
Maximum altitude 06:25:43 86° 275° (W) 984 4.0 -11.6°
Drops below altitude 10° 06:32:00 10° 5° (N) 2,733 6.2 -10.3°
Sets 06:34:31 0° 6° (N) 3,685 6.9 -9.8°
